Location: Newark
(52.0267°N, 0.2640°W)
Time: 02:37:04
(UTC+00:00)

ISS - Visible Passes

Search period start: 15 December 2019 00:00
Search period end: 25 December 2019 00:00
Orbit: 411 x 421 km, 51.6° (Epoch: 15 December)

Date Brightness Start Highest point End Pass type
(mag) Time Alt. Az. Time Alt. Az. Time Alt. Az.
21 Dec -0.6 06:55:56 10° S 06:57:50 14° SE 06:59:44 10° ESE visible
23 Dec -1.6 06:54:14 10° SSW 06:57:06 27° SSE 06:59:59 10° E visible
24 Dec -1.1 06:06:13 10° SSW 06:08:41 20° SE 06:11:10 10° E visible
